Theta_e
307 307 308 309 307 306 306 305 305 304 305 307 308 308 307 307 306 307 308 308 307 307 308 307 307 308 308 308 307 306 305 304 303 303 303 302 303 305 305 305 304 303 299 298
306 307 307 306 305 306 306 308 308 307 306 304 306 308 308 308 308 309 309 309 308 306 306 305 306 306 306 307 306 305 304 303 302 302 302 302 301 300 300 300 301 301 299 298
308 309 306 306 306 307 305 306 307 307 305 305 304 308 307 307 306 307 307 307 306 306 306 305 303 304 305 306 306 305 304 302 301 301 300 300 300 299 298 298 298 299 299 298
306 306 307 306 306 306 309 306 306 306 307 309 306 310 310 311 310 308 306 305 304 304 303 303 302 302 302 304 304 304 304 302 300 300 299 299 300 298 298 298 297 297 298 297
309 306 307 308 308 305 308 307 307 306 306 307 307 308 307 307 308 308 308 306 305 305 304 302 302 303 303 303 302 302 301 301 300 299 298 298 298 298 298 298 296 297 297 296
305 304 305 306 306 305 306 308 305 304 306 309 308 309 309 308 310 309 309 305 304 303 301 301 302 303 302 301 301 300 299 299 299 299 298 297 297 298 297 297 296 296 295 295
305 305 305 305 307 305 307 307 310 311 310 314 306 307 310 309 306 308 307 306 302 301 300 301 301 300 299 297 298 297 298 298 297 297 298 297 297 298 298 297 296 295 294 293
306 316 305 304 307 308 306 308 313 319 312 319 306 310 310 306 306 304 303 302 301 301 300 299 298 297 296 295 295 295 295 295 296 296 296 297 297 297 297 296 296 296 295 295
316 317 304 303 305 306 306 309 308 312 303 306 311 311 309 305 305 304 302 302 301 299 298 296 295 294 294 293 293 293 294 294 294 294 295 296 296 296 296 296 295 296 296 296
310 315 310 306 305 305 306 306 310 309 317 317 314 312 313 311 311 304 302 301 300 298 296 295 294 294 293 292 292 292 292 292 292 293 293 293 294 294 295 295 295 295 296 295
311 315 315 313 307 308 306 307 307 307 316 320 319 316 309 307 301 300 299 298 296 294 293 293 292 292 292 292 292 291 291 291 291 291 291 292 293 293 293 294 294 294 294 295
314 318 318 317 312 306 307 309 309 315 314 311 314 315 312 302 299 296 295 293 293 292 291 291 291 291 290 291 291 291 290 290 290 290 290 290 292 291 291 293 294 293 293 293
313 316 318 315 310 309 310 310 310 313 314 318 319 316 309 307 299 294 293 292 291 291 291 290 290 290 290 289 289 290 289 289 289 288 289 289 290 291 289 289 291 292 293 292
311 313 316 317 314 312 314 313 311 312 312 313 312 311 307 306 299 293 294 291 291 290 290 290 290 290 289 289 289 289 289 288 288 288 288 288 289 289 290 289 289 290 291 291
308 311 310 311 310 305 305 305 305 305 305 307 306 305 305 298 293 292 291 292 292 292 289 290 290 289 289 288 288 288 288 287 287 287 287 288 288 288 288 289 289 288 289 289
301 303 302 298 301 301 300 299 300 301 300 300 301 301 293 292 291 290 289 290 290 290 288 289 289 288 288 287 286 287 286 285 286 286 287 287 288 287 286 286 287 289 288 287
297 299 297 301 299 293 296 294 295 294 295 297 297 293 288 289 290 289 288 288 289 288 288 288 288 287 286 286 285 285 284 284 284 284 285 286 287 286 285 284 285 287 287 287
295 295 287 292 284 286 293 291 294 296 295 291 288 287 289 289 289 289 288 288 288 287 288 287 286 286 285 284 284 283 283 283 282 282 283 284 285 284 283 283 284 285 286 286
293 293 284 285 281 289 292 290 290 290 290 288 288 289 290 290 288 287 287 287 287 286 287 286 286 286 285 284 283 282 282 282 281 281 281 282 282 280 280 282 284 284 284 284
292 293 290 274 285 284 290 287 289 286 285 281 283 285 286 289 286 286 285 285 286 286 285 284 284 283 282 281 281 280 281 281 280 279 279 280 278 278 279 281 284 283 283 283
279 280 292 292 291 288 288 288 287 285 287 285 283 286 287 288 288 287 285 285 284 284 283 283 282 281 280 280 279 279 279 278 278 278 277 276 275 276 277 279 278 279 282 282
286 280 276 272 278 285 284 286 287 287 288 287 286 287 288 288 288 287 286 285 283 282 282 281 280 280 279 278 278 277 277 277 276 275 274 274 273 273 274 274 275 278 282 281
287 286 284 284 283 286 285 287 288 288 288 288 287 287 286 287 287 286 283 282 281 281 281 280 279 278 277 277 277 276 275 275 274 272 272 271 271 271 271 272 273 276 280 281
288 287 287 289 288 287 288 288 288 288 288 288 286 285 285 285 284 282 281 281 280 279 278 277 277 276 276 275 275 274 273 272 270 269 269 268 268 269 269 270 272 274 277 281
289 286 287 288 288 288 288 288 288 288 287 285 282 283 282 280 280 280 279 278 277 276 275 274 274 273 273 272 271 270 269 268 267 267 266 266 266 267 268 269 270 272 274 279
289 289 289 289 289 288 288 288 284 285 283 279 279 279 278 277 277 276 275 274 273 273 271 270 270 269 268 267 267 266 265 265 264 264 264 264 265 265 266 267 268 269 272 275
Wind_Speed
1 3 8 18 15 2 2 5 7 7 8 5 19 18 17 17 16 23 23 19 17 14 19 23 20 22 23 25 28 32 36 39 40 39 37 37 45 50 52 54 52 49 47 46
3 6 13 1 3 7 8 12 13 11 13 5 10 20 21 23 25 24 21 21 12 7 12 6 12 14 17 22 25 29 33 36 41 43 42 29 32 35 41 45 49 50 51 48
9 6 4 7 4 7 5 6 12 12 6 5 8 7 3 5 6 11 18 13 12 9 11 10 10 17 16 17 20 25 30 33 37 39 33 33 20 24 33 39 47 52 51 50
7 4 7 3 6 10 9 10 13 6 4 4 3 8 3 17 17 10 11 7 6 8 4 5 7 9 13 18 17 18 21 28 33 36 36 38 34 28 33 38 42 47 51 52
7 6 4 5 9 7 10 1 3 2 3 3 3 4 6 2 5 5 7 8 6 6 3 8 10 15 19 22 19 14 15 20 26 32 34 34 30 22 18 27 33 43 50 52
6 4 6 8 4 7 2 1 3 4 1 4 11 9 4 3 4 1 5 5 9 5 7 8 11 16 27 32 32 22 14 12 18 25 31 31 27 26 27 28 33 37 43 50
3 4 4 3 1 2 3 5 4 4 1 7 4 3 5 7 6 4 6 8 5 6 11 12 17 20 31 33 38 33 23 15 13 19 26 32 34 32 32 33 32 34 35 40
4 11 7 4 7 8 7 9 6 6 3 13 2 7 5 8 5 4 7 8 6 15 12 16 18 25 28 31 33 36 31 21 16 14 20 24 29 31 33 33 32 35 36 42
5 9 3 5 3 2 3 5 2 0 2 2 6 12 7 5 7 5 11 18 20 19 18 18 19 25 28 31 33 36 36 32 25 18 13 17 23 27 32 33 34 37 39 41
4 7 3 3 1 2 6 3 1 2 2 6 12 7 7 9 11 17 19 17 16 15 15 15 16 25 26 26 27 28 31 29 31 34 28 24 23 25 29 33 36 38 40 39
8 6 8 3 4 7 1 3 3 2 5 4 5 10 7 11 10 8 8 10 11 13 13 13 15 22 26 27 28 27 30 31 34 36 37 33 28 28 29 32 36 39 40 40
9 5 6 13 12 8 8 8 7 11 17 12 18 21 13 13 11 8 8 8 7 7 8 9 13 18 21 24 28 29 31 28 29 32 35 34 36 30 29 32 35 36 38 40
2 4 4 5 3 3 4 1 6 9 10 19 14 7 7 5 9 9 7 7 7 7 9 8 9 12 16 19 22 25 31 31 34 33 31 33 34 32 29 29 33 36 39 40
1 3 12 15 10 6 5 7 7 4 3 5 9 13 17 22 13 10 6 5 6 6 10 10 10 13 17 19 19 19 22 27 32 36 35 29 28 32 35 31 28 31 34 39
2 11 13 17 8 5 6 10 14 15 17 13 21 22 24 7 8 8 5 4 6 9 10 10 10 10 18 22 25 26 24 26 28 26 28 32 32 31 31 36 33 28 29 34
4 3 4 4 7 7 12 18 19 18 21 21 22 25 6 0 5 6 8 5 6 3 7 9 10 13 15 18 20 22 25 27 28 28 27 30 30 35 36 35 33 33 28 30
2 2 1 9 11 8 12 17 18 10 1 2 9 2 1 3 6 5 7 7 7 6 6 6 6 8 15 20 21 19 25 30 31 29 28 27 28 28 33 38 38 35 30 24
12 12 3 8 4 5 6 4 3 4 3 4 3 4 7 7 5 6 7 7 7 9 9 8 9 11 17 24 25 24 27 25 23 25 26 28 28 30 31 29 30 33 31 25
15 8 2 3 6 8 11 4 5 4 5 8 6 5 5 4 5 7 10 8 8 8 10 14 18 22 23 23 23 23 23 21 21 22 24 26 28 34 34 32 31 30 29 28
7 10 5 3 4 7 5 3 2 4 4 7 6 7 6 3 2 9 7 6 8 13 17 17 22 21 20 22 21 21 23 22 23 24 27 26 30 29 31 32 31 31 31 31
2 2 12 11 6 6 5 5 4 5 5 4 6 9 8 7 11 13 5 7 9 13 17 21 22 23 26 24 23 24 23 24 24 27 28 32 31 31 30 31 35 35 32 31
5 4 4 3 2 7 5 2 5 6 7 5 5 10 10 11 13 14 12 6 5 10 20 21 19 26 31 28 25 27 28 29 27 28 31 32 33 34 33 32 33 32 29 28
4 6 4 9 6 5 6 7 13 12 10 15 8 11 9 11 13 9 5 7 9 14 17 21 21 27 33 30 26 26 34 30 32 30 32 34 35 35 33 31 32 29 28 25
6 6 9 13 12 16 18 18 14 11 12 13 9 9 5 8 5 5 8 10 11 18 19 21 22 25 31 32 30 31 33 31 32 34 38 37 34 34 33 32 29 28 27 26
9 4 7 15 15 14 17 16 16 14 9 3 3 2 3 4 5 6 10 11 15 20 22 22 23 26 34 36 37 36 35 33 35 38 38 36 33 33 32 30 29 28 30 30
11 19 11 15 17 14 17 12 1 1 1 4 4 2 3 5 9 10 11 15 19 21 24 25 28 30 34 36 38 37 36 35 36 36 34 31 30 30 29 29 33 32 36 36
Wind_Direction
44 132 197 219 208 96 172 228 248 259 256 300 278 275 276 272 275 272 270 272 266 263 273 278 289 284 275 261 251 245 237 233 221 210 206 214 219 221 224 225 225 222 218 215
55 231 228 29 157 233 254 268 273 275 261 195 265 282 278 262 259 266 275 279 280 272 284 334 305 295 281 273 261 249 242 234 223 213 210 211 216 224 223 224 225 223 219 217
196 218 176 194 191 255 228 229 255 258 320 247 313 272 228 269 271 262 260 266 272 273 297 312 314 326 310 295 280 262 252 241 229 216 208 209 215 218 220 222 224 222 221 220
232 251 189 148 212 206 267 236 257 276 352 249 33 292 125 285 272 291 291 268 310 297 324 304 300 336 334 344 315 289 261 250 240 223 209 206 207 205 218 211 216 220 221 219
246 179 163 182 219 146 231 251 245 209 215 336 278 265 276 227 270 282 291 16 34 34 348 323 342 342 359 3 351 327 290 260 244 230 220 212 215 221 234 216 216 215 219 220
261 325 177 210 187 179 120 71 49 51 91 272 211 196 309 203 192 120 349 48 37 35 21 353 338 351 1 9 8 2 350 291 249 235 229 227 221 219 219 215 211 215 218 217
307 238 268 159 160 76 123 74 321 314 358 244 358 257 257 287 255 3 357 323 34 4 12 348 9 8 7 9 12 7 8 343 287 248 239 237 235 229 231 221 209 208 210 213
287 296 190 181 204 191 179 169 174 230 246 291 118 246 255 230 354 101 12 31 12 15 10 14 18 17 15 15 17 16 9 352 331 290 260 249 249 246 242 238 226 225 219 220
206 254 243 220 157 165 165 188 196 140 116 285 247 277 318 349 97 87 36 30 25 26 25 21 18 20 18 16 17 23 22 12 354 325 297 274 267 257 252 251 246 242 240 233
332 289 243 298 65 268 181 177 86 23 224 231 270 273 225 318 346 31 28 16 9 19 23 19 14 12 12 15 13 15 22 22 14 13 356 322 297 277 265 256 252 248 247 241
170 222 264 358 205 201 151 225 222 334 165 241 253 263 131 89 72 52 31 31 23 18 14 12 13 9 5 5 6 11 12 10 10 7 5 1 337 304 283 269 261 254 249 243
194 191 231 243 241 212 190 212 222 244 261 230 241 247 307 84 83 73 48 33 29 26 10 7 10 5 8 4 359 360 1 3 1 359 0 359 360 346 304 281 276 267 254 247
84 246 265 282 252 14 191 280 252 275 280 251 255 248 10 134 112 57 59 28 20 19 356 355 7 10 4 1 359 355 352 352 353 353 356 357 357 353 332 302 286 275 267 260
329 225 249 258 265 350 262 276 304 257 254 307 284 308 312 306 344 24 52 37 5 359 353 351 357 356 357 354 351 350 348 346 346 347 348 350 350 346 347 335 304 283 270 258
296 261 267 265 273 312 284 271 270 260 264 266 288 283 277 300 324 346 338 344 332 338 358 341 339 345 346 345 344 345 344 340 338 339 340 339 341 341 341 342 340 312 284 265
5 300 346 273 281 273 287 283 268 271 271 268 265 265 91 221 298 305 322 304 307 324 332 319 325 336 336 336 333 332 334 337 339 335 331 330 335 338 336 333 332 335 313 282
267 256 273 271 301 327 285 258 265 249 218 267 262 258 209 257 256 270 307 298 289 287 278 278 299 304 311 313 317 319 326 332 335 333 330 328 330 329 330 327 328 328 322 299
242 242 170 267 39 264 277 357 108 194 158 145 127 207 214 222 244 265 278 261 282 297 300 297 281 275 294 307 315 319 322 324 323 321 322 326 327 325 321 317 316 317 314 301
223 239 266 202 211 301 303 206 174 164 238 196 182 230 249 256 340 281 251 231 259 275 283 285 285 285 290 292 305 308 306 306 310 314 315 317 318 319 319 314 310 312 309 298
209 219 188 90 196 219 239 243 116 109 285 219 183 228 248 128 250 268 224 244 259 270 283 291 297 298 295 293 301 299 295 299 303 308 309 309 311 308 309 307 307 305 304 297
27 19 216 228 252 289 241 210 141 89 271 222 194 237 227 205 233 259 216 234 251 271 288 300 304 300 299 303 306 299 297 291 296 299 301 305 305 303 301 299 298 299 291 290
186 178 202 75 49 278 187 56 159 216 277 266 235 249 244 246 259 254 262 280 281 294 300 301 300 298 299 301 300 294 292 298 298 297 297 299 299 298 294 292 291 290 280 275
268 190 196 195 212 219 220 225 270 280 275 280 262 264 244 261 264 256 256 283 294 286 287 294 289 290 293 296 293 291 294 302 301 295 293 291 292 289 287 285 286 285 280 267
250 195 240 266 253 253 261 266 269 265 261 269 262 256 251 247 280 315 301 294 296 296 296 299 297 293 293 296 295 293 298 302 299 295 294 294 291 288 286 283 279 276 275 268
240 187 243 256 258 263 263 258 258 270 273 305 29 352 355 340 308 294 294 298 298 301 306 307 301 297 294 300 298 299 299 300 295 293 292 291 290 287 285 280 277 275 271 270
237 249 250 257 257 251 266 274 53 199 40 45 34 346 351 334 313 313 302 306 306 307 312 308 303 300 298 299 297 299 299 297 292 290 291 290 289 287 284 283 285 277 274 273